Location: Millers Ferry
(32.0990°N, 87.3680°W)
Time: 08:25:18
(UTC-05:00)

CSL-04 Rocket - Visible Passes

Search period start: 16 September 2014 00:00
Search period end: 26 September 2014 00:00
Orbit: 806 x 861 km, 98.9° (Epoch: 15 September)

Date Brightness Start Highest point End Pass type
(mag) Time Alt. Az. Time Alt. Az. Time Alt. Az.
16 Sep 5.5 04:23:24 10° NE 04:27:56 28° E 04:32:29 10° SSE visible
16 Sep 4.5 06:03:36 10° N 06:08:09 29° WNW 06:12:43 10° SW visible
17 Sep 6.1 04:07:22 10° NE 04:11:05 19° E 04:14:48 10° SE visible
17 Sep 4.0 05:46:30 10° N 05:51:30 42° WNW 05:56:33 10° SW visible
18 Sep 6.4 03:52:02 10° ENE 03:54:12 12° E 03:56:21 10° ESE visible
18 Sep 3.6 05:29:32 10° N 05:34:49 63° WNW 05:40:09 10° SSW visible
19 Sep 3.6 05:12:44 10° NNE 05:18:06 89° ESE 05:23:32 10° SSW visible
20 Sep 4.1 04:56:03 10° NNE 05:01:21 61° ESE 05:06:42 10° S visible
21 Sep 4.9 04:39:31 10° NNE 04:44:34 41° E 04:49:39 10° S visible
22 Sep 5.5 04:23:11 10° NE 04:27:45 28° E 04:32:20 10° SSE visible
22 Sep 4.5 06:03:22 10° N 06:07:58 30° WNW 06:12:37 10° SW visible
23 Sep 6.1 04:07:10 10° NE 04:10:54 19° E 04:14:39 10° SE visible
23 Sep 4.0 05:46:16 10° N 05:51:19 43° WNW 05:56:26 10° SW visible
24 Sep 6.5 03:51:51 10° ENE 03:54:01 12° E 03:56:11 10° ESE visible
24 Sep 3.6 05:29:19 10° N 05:34:38 64° WNW 05:40:01 10° SSW visible
25 Sep 3.7 05:12:30 10° NNE 05:17:55 88° ESE 05:23:24 10° SSW visible
